Find STARLINK-37257

NORAD ID: 70603 Constellation: starlink operational
LEOCIRCULAR

Live Position

Loading 3D Globe...

About STARLINK-37257

Description loading...

Upcoming Passes

Passes for default location (London). Set your location on the main map for personalized predictions.

Altitude History

Loading altitude history...

Two-Line Element Set

1 70603C 26099V 26122.89145833 .00060824 00000+0 72445-4 0 1229
2 70603 53.1635 22.5525 0005840 288.1078 191.8890 16.07629560 12
Epoch: May 2, 2026 • Age: 30 hours